Regional Weather Roundup
Issued by NWS

Home | Current Version | Previous Version | Graphics & Text | Print | Product List | Glossary On
Versions: 1 2 3 4 5 6 7 8 9 10 11 12 13 14 15 16 17 18 19 20 21 22 23 24 25 26 27 28 29 30 31 32 33 34 35 36 37 38 39 40 41 42 43 44 45 46 47 48 49 50
000
ASUS43 KBIS 252202
RWRND

NORTH DAKOTA REGIONAL WEATHER ROUNDUP
NATIONAL WEATHER SERVICE BISMARCK ND
500 PM CDT SUN JUN 25 2017

NOTE: "FAIR" INDICATES FEW OR NO CLOUDS BELOW 12,000 FEET WITH NO
SIGNIFICANT WEATHER AND/OR OBSTRUCTIONS TO VISIBILITY.


NDZ001>003-009>011-017-252300-
NORTHWEST NORTH DAKOTA

CITY           SKY/WX    TMP DP  RH WIND       PRES   REMARKS
WILLISTON      MOSUNNY   72  42  34 NE10G20   30.24S
MINOT          MOSUNNY   68  43  40 N13       30.22F
MINOT AFB      MOSUNNY   68  41  38 N9G18     30.22F
$$

NDZ018>021-031>035-040>046-252300-
SOUTHWEST NORTH DAKOTA

CITY           SKY/WX    TMP DP  RH WIND       PRES   REMARKS
BISMARCK       MOSUNNY   72  45  37 NW13      30.20F
DICKINSON      MOSUNNY   71  36  27 N13G21    30.21F
GARRISON         N/A     69  42  37 NE9G22    30.21F
HETTINGER ARPT MOSUNNY   77  36  22 N10G20    30.22F
$$

NDZ004>008-012>016-024-026-027-054-252300-
NORTHEAST NORTH DAKOTA

CITY           SKY/WX    TMP DP  RH WIND       PRES   REMARKS
GRAND FORKS    PTSUNNY   67  45  45 N13G24    30.17F
GRND FRKS AFB  MOSUNNY   65  42  43 NE14G23   30.18F
DEVILS LAKE    CLOUDY    62  39  42 N13       30.22F
$$

NDZ022-023-025-028>030-036>039-047>053-252300-
SOUTHEAST NORTH DAKOTA

CITY           SKY/WX    TMP DP  RH WIND       PRES   REMARKS
FARGO          PTSUNNY   69  42  37 NW16      30.16F
JAMESTOWN      CLOUDY    58  46  64 W13       30.20R
$$





USA.gov is the U.S. government's official web portal to all federal, state and local government web resources and services.